User: anonymous   Login
Location: Prairie State College
(41.5244°N, 87.6382°W)
Time: 15:44:07
(UTC-05:00)
Language:

ARGOS Delta rocket - Orbit

View from above orbital plane
View from above orbital plane
View from above satellite
View from above satellite

Ground track
Ground track

The orbit data is extracted from the following two-line orbital elements,

1 25637U 99008D   16270.51303618  .00000159  00000-0  46393-4 0  9996
2 25637  96.4676 226.2280 0143967  40.2198  74.2333 14.46460397927496
Epoch (UTC): 26 September 2016 12:18:46
Eccentricity: 0.0143967
inclination: 96.4676°
perigee height: 635 km
apogee height: 839 km
right ascension of ascending node: 226.2280°
argument of perigee: 40.2198°
revolutions per day: 14.46460397
mean anomaly at epoch: 74.2333°
orbit number at epoch: 92749

The dashed part of the orbit path shows where the satellite is in the earth's shadow,  

DLR